Regional Weather Roundup
Issued by NWS

Home | Current Version | Previous Version | Text Only | Print | Product List | Glossary On
Versions: 1 2 3 4 5 6 7 8 9 10 11 12 13 14 15 16 17 18 19 20 21 22 23 24 25 26 27 28 29 30 31 32 33 34 35 36 37 38 39 40 41 42 43 44 45 46 47 48 49 50
283
ASUS44 KJAN 201710
RWRMS

MISSISSIPPI HOURLY WEATHER ROUNDUP
NATIONAL WEATHER SERVICE JACKSON MS
1100 AM CST SAT DEC 20 2014

NOTE: "FAIR: INDICATES FEW OR NO CLOUDS BELOW 12,000 FEET WITH NO
SIGNIFICANT WEATHER AND/OR OBSTRUCTIONS TO VISIBILITY.

MSZ001>002-007>008-010>013-018>021-025>028-034>036-201800-
NORTHWEST MISSISSIPPI

CITY           SKY/WX    TMP DP  RH WIND       PRES   REMARKS
CLARKSDALE     CLOUDY    45  36  70 CALM      30.29F
CLEVELAND      FAIR      46  38  72 NE6       30.28S
GREENWOOD      SUNNY     50  36  58 NE5       30.27F
GREENVILLE     SUNNY     48  37  65 NE8       30.28R
GRENADA        FAIR      46  36  66 CALM      30.28F
OLIVE BRANCH   PTSUNNY   43  34  70 NE5       30.28F
OXFORD         FAIR      46  32  57 NE7       30.28F
TUNICA         CLOUDY    43  34  70 NE3       30.30S
$$

MSZ003>006-009-014>017-022>024-029>033-037>039-201800-
NORTHEAST MISSISSIPPI

CITY           SKY/WX    TMP DP  RH WIND       PRES   REMARKS
COLUMBUS AFB   SUNNY     48  35  61 VRB6      30.25F
CORINTH        FAIR      46  30  53 VRB7      30.26F
GOLDN TRIANGLE SUNNY     48  37  66 NE7       30.25F
STARKVILLE     FAIR      46  37  71 N3        30.25F
TUPELO         SUNNY     47  32  56 E7        30.27F
$$

MSZ040-058-201800-
CENTRAL MISSISSIPPI

CITY           SKY/WX    TMP DP  RH WIND       PRES   REMARKS
JACKSON INTL   PTSUNNY   49  42  77 N12       30.24S
JACKSON HAWKNS SUNNY     50  41  71 N9        30.23F
MERIDIAN KEY   CLOUDY    49  41  74 N9        30.22F
MERIDIAN NAS   CLOUDY    48  41  76 NE7       30.24F
RAYMOND        FAIR      52  46  82 NE3       30.23F
VICKSBURG      SUNNY     50  42  74 NE8       30.25F
$$

MSZ059>079-201800-
SOUTH MISSISSIPPI

CITY           SKY/WX    TMP DP  RH WIND       PRES   REMARKS
HATTIESBURG    CLOUDY    49  44  83 NE9       30.21S
MCCOMB         CLOUDY    47  44  90 N7        30.20S FOG
NATCHEZ        PTSUNNY   50  43  76 NE8       30.23S
PINE BELT      CLOUDY    48  43  81 N10       30.21F
$$

MSZ080>082-201800-
COASTAL MISSISSIPPI

CITY           SKY/WX    TMP DP  RH WIND       PRES   REMARKS
BAY ST LOUIS   CLOUDY    52  45  76 N12       30.16F
BILOXI         CLOUDY    51  50  97 NE12      30.15S
PASCAGOULA     CLOUDY    51  49  92 NE10      30.15S
GULFPORT       CLOUDY    51  47  86 N13       30.15S
$$



USA.gov is the U.S. government's official web portal to all federal, state and local government web resources and services.